Angleton, TX

2:28 PM CDT on September 22, 2017 (GMT -0500)
Brazoria County

Weather History for KLBX - November, 2012

Change the Weather History Date:

Sunday, November 25, 2012

  Actual Average Record
Temperature  
Mean Temperature 57 °F -  
Max Temperature 75 °F 67 °F 80 °F (1998)
Min Temperature 39 °F 50 °F 35 °F (2003)
Degree Days  
Heating Degree Days 8    
Growing Degree Days 7 (Base 50)    
Moisture  
Dew Point 53 °F    
Average Humidity 79    
Maximum Humidity 97    
Minimum Humidity 53    
Precipitation  
Precipitation 0.00 in - - ()
Sea Level Pressure  
Sea Level Pressure 30.06 in    
Wind  
Wind Speed 3 mph (SE)    
Max Wind Speed 13 mph    
Max Gust Speed -    
Visibility 10 miles    
Events      
Averages and records for this station are not official NWS values.
T = Trace of Precipitation, MM = Missing Value Source: NWS Daily Summary

Daily Weather History Graph

Daily Weather History Graph

Search for Another Location

Airport or City:

Trip Planner

Search our weather history database for the weather conditions in past years. The results will help you decide how hot, cold, wet, or windy it might be!

Date:

Astronomy

Nov. 25, 2012 Rise Set
Actual Time 6:53 AM CST 5:24 PM CST
Civil Twilight 6:28 AM CST 5:49 PM CST
Nautical Twilight 5:59 AM CST 6:18 PM CST
Astronomical Twilight 5:30 AM CST 6:47 PM CST
Moon 3:34 PM CST (11/25) 4:17 AM CST (11/25)
Length of Visible Light 11h 21m
Length of Day
10h 30m
Waxing Gibbous, 93% of the Moon is Illuminated
Nov 25
Waxing Gibbous
Nov 28
Full
Dec 6
Last Quarter
Dec 13
New
Dec 19
First Quarter

Hourly Weather History & Observations

Time (CST) Temp. Windchill Dew Point Humidity Pressure Visibility Wind Dir Wind Speed Gust Speed Precip Events Conditions
12:53 AM 39.9 °F - 37.9 °F 93% 30.16 in 10.0 mi Calm Calm - N/A   Clear
1:53 AM 42.1 °F - 39.9 °F 92% 30.14 in 10.0 mi Calm Calm - N/A   Clear
2:53 AM 41.0 °F - 39.0 °F 93% 30.13 in 10.0 mi Calm Calm - N/A   Clear
3:53 AM 41.0 °F - 39.9 °F 96% 30.12 in 10.0 mi Calm Calm - N/A   Clear
4:53 AM 41.0 °F - 39.0 °F 93% 30.11 in 10.0 mi Calm Calm - N/A   Clear
5:53 AM 42.1 °F 39.2 °F 39.9 °F 92% 30.11 in 10.0 mi NNE 4.6 mph - N/A   Clear
6:53 AM 42.1 °F 40.2 °F 41.0 °F 96% 30.11 in 10.0 mi NNE 3.5 mph - N/A   Clear
7:53 AM 48.0 °F - 44.1 °F 86% 30.12 in 10.0 mi Calm Calm - N/A   Clear
8:53 AM 59.0 °F - 50.0 °F 72% 30.14 in - Calm Calm - N/A   Unknown
9:53 AM 66.9 °F - 54.0 °F 63% 30.13 in 10.0 mi ESE 3.5 mph - N/A   Clear
10:53 AM 71.1 °F - 55.9 °F 59% 30.12 in 10.0 mi South 6.9 mph - N/A   Unknown
11:53 AM 73.9 °F - 55.9 °F 53% 30.09 in 10.0 mi South 10.4 mph - N/A   Clear
12:53 PM 75.0 °F - 57.0 °F 53% 30.06 in 10.0 mi SSE 12.7 mph - N/A   Partly Cloudy
1:53 PM 75.0 °F - 57.9 °F 55% 30.03 in 10.0 mi South 6.9 mph - N/A   Scattered Clouds
2:53 PM 73.9 °F - 59.0 °F 59% 30.01 in 10.0 mi South 12.7 mph - N/A   Overcast
3:53 PM 72.0 °F - 60.1 °F 66% 30.00 in 10.0 mi South 9.2 mph - N/A   Overcast
4:53 PM 71.1 °F - 61.0 °F 70% 30.00 in 10.0 mi SSE 5.8 mph - N/A   Mostly Cloudy
5:53 PM 69.1 °F - 61.0 °F 75% 29.99 in 10.0 mi ESE 4.6 mph - N/A   Overcast
6:53 PM 68.0 °F - 61.0 °F 78% 29.99 in 10.0 mi ESE 4.6 mph - N/A   Overcast
7:53 PM 66.9 °F - 61.0 °F 81% 30.00 in 10.0 mi ESE 4.6 mph - N/A   Scattered Clouds
8:53 PM 64.9 °F - 62.1 °F 90% 30.00 in 10.0 mi SE 4.6 mph - N/A   Partly Cloudy
9:53 PM 66.0 °F - 63.0 °F 90% 29.99 in 10.0 mi ESE 5.8 mph - N/A   Clear
10:53 PM 66.0 °F - 64.0 °F 93% 29.99 in 10.0 mi SE 4.6 mph - N/A   Clear
11:53 PM 64.9 °F - 64.0 °F 97% 29.97 in 7.0 mi SE 3.5 mph - N/A   Partly Cloudy